This is the latest recevied weather packets stored in our database for station/object PU2XNA. If no packets are shown the sender has not sent any weather packets the latest 10 day(s).
| Time | Temp. | Humidity | Pressure | Rain* | Wind** | Luminosity | Snow |
|---|---|---|---|---|---|---|---|
| 1788211803 | 31.67° C | 42% | 1005.8 hPa | - | - | - | - |
| 1788210904 | 31.67° C | 42% | 1005.7 hPa | - | - | - | - |
| 1788210002 | 32.22° C | 42% | 1005.6 hPa | - | - | - | - |
| 1788209103 | 32.78° C | 41% | 1005.5 hPa | - | - | - | - |
| 1788208203 | 32.78° C | 40% | 1005.5 hPa | - | - | - | - |
| 1788207303 | 33.33° C | 40% | 1005.5 hPa | - | - | - | - |
| 1788206403 | 33.33° C | 39% | 1005.5 hPa | - | - | - | - |
| 1788205505 | 33.89° C | 38% | 1005.6 hPa | - | - | - | - |
| 1788204603 | 33.89° C | 38% | 1005.6 hPa | - | - | - | - |
| 1788203702 | 33.89° C | 37% | 1005.6 hPa | - | - | - | - |
| 1788202803 | 34.44° C | 37% | 1005.6 hPa | - | - | - | - |
| 1788201903 | 35° C | 38% | 1005.8 hPa | - | - | - | - |
| 1788201003 | 34.44° C | 40% | 1006 hPa | - | - | - | - |
| 1788200103 | 33.33° C | 38% | 1005.9 hPa | - | - | - | - |
| 1788199204 | 33.33° C | 38% | 1006.2 hPa | - | - | - | - |
| 1788198303 | 33.33° C | 38% | 1006.5 hPa | - | - | - | - |
| 1788197403 | 33.33° C | 38% | 1006.8 hPa | - | - | - | - |
| 1788196503 | 33.33° C | 38% | 1007.3 hPa | - | - | - | - |
| 1788195602 | 32.22° C | 38% | 1007.4 hPa | - | - | - | - |
| 1788194704 | 32.78° C | 38% | 1007.7 hPa | - | - | - | - |
| 1788193804 | 32.78° C | 38% | 1007.7 hPa | - | - | - | - |
| 1788192902 | 32.22° C | 38% | 1007.9 hPa | - | - | - | - |
| 1788192014 | 31.67° C | 38% | 1008.3 hPa | - | - | - | - |
| 1788191103 | 31.67° C | 38% | 1008.6 hPa | - | - | - | - |
| 1788190204 | 31.67° C | 38% | 1008.8 hPa | - | - | - | - |
* Rain since midnight (hover to see other rain measurements)
** Current wind speed in m/s (hover to see current wind gust speed)